Dumas, TX

10:31 AM CDT on May 23, 2018 (GMT -0500)
Moore County

Weather History for KDUX - January, 2012

Change the Weather History Date:

Tuesday, January 3, 2012

  Actual Average (KDHT) Record (KDHT)
Temperature  
Mean Temperature 47 °F -  
Max Temperature 62 °F 47 °F 75 °F (1997)
Min Temperature 32 °F 20 °F -18 °F (1959)
Degree Days  
Heating Degree Days 18    
Moisture  
Dew Point 29 °F    
Average Humidity 61    
Maximum Humidity 81    
Minimum Humidity 32    
Precipitation  
Precipitation 0.00 in - - ()
Sea Level Pressure  
Sea Level Pressure 30.19 in    
Wind  
Wind Speed 14 mph (WSW)    
Max Wind Speed 22 mph    
Max Gust Speed 25 mph    
Visibility 10 miles    
Events      
Averages and records for this station are not official NWS values.
T = Trace of Precipitation, MM = Missing Value Source: NWS Daily Summary

Daily Weather History Graph

Daily Weather History Graph

Search for Another Location

Airport or City:

Astronomy

Jan. 03, 2012 Rise Set
Actual Time 7:58 AM CST 5:46 PM CST
Civil Twilight 7:30 AM CST 6:14 PM CST
Nautical Twilight 6:58 AM CST 6:46 PM CST
Astronomical Twilight 6:27 AM CST 7:17 PM CST
Moon 1:32 PM CST (1/3) 2:54 AM CST (1/3)
Length of Visible Light 10h 44m
Length of Day
9h 47m
Waxing Gibbous, 73% of the Moon is Illuminated
Jan 3
Waxing Gibbous
Jan 9
Full
Jan 16
Last Quarter
Jan 23
New
Jan 30
First Quarter

Hourly Weather History & Observations

Time (CST) Temp. Windchill Dew Point Humidity Pressure Visibility Wind Dir Wind Speed Gust Speed Precip Events Conditions
12:15 AM 32.0 °F 23.0 °F 24.8 °F 75% 30.37 in 10.0 mi SW 11.5 mph - N/A   Clear
12:35 AM 32.0 °F 24.2 °F 24.8 °F 75% 30.36 in 10.0 mi SW 9.2 mph - N/A   Clear
12:55 AM 32.0 °F 23.6 °F 24.8 °F 75% 30.35 in 10.0 mi SW 10.4 mph - N/A   Clear
1:15 AM 32.0 °F 23.0 °F 26.6 °F 80% 30.34 in 10.0 mi SW 11.5 mph - N/A   Clear
1:35 AM 32.0 °F 22.1 °F 26.6 °F 80% 30.33 in 10.0 mi SW 13.8 mph - N/A   Clear
1:55 AM 32.0 °F 21.2 °F 26.6 °F 80% 30.32 in 10.0 mi SW 16.1 mph - N/A   Clear
2:15 AM 32.0 °F 20.5 °F 26.6 °F 80% 30.31 in 10.0 mi SW 18.4 mph - N/A   Clear
2:55 AM 32.0 °F 20.8 °F 26.6 °F 80% 30.31 in 10.0 mi SW 17.3 mph - N/A   Clear
3:15 AM 32.0 °F 20.5 °F 26.6 °F 80% 30.30 in 10.0 mi SW 18.4 mph - N/A   Clear
3:35 AM 32.0 °F 20.8 °F 26.6 °F 80% 30.29 in 10.0 mi SW 17.3 mph - N/A   Clear
3:55 AM 32.0 °F 19.8 °F 26.6 °F 80% 30.28 in 10.0 mi SW 20.7 mph - N/A   Clear
4:15 AM 32.0 °F 20.5 °F 26.6 °F 80% 30.28 in 10.0 mi WSW 18.4 mph - N/A   Clear
4:35 AM 32.0 °F 20.8 °F 24.8 °F 75% 30.26 in 10.0 mi WSW 17.3 mph - N/A   Clear
4:55 AM 32.0 °F 20.1 °F 24.8 °F 75% 30.26 in 10.0 mi WSW 19.6 mph - N/A   Clear
5:15 AM 32.0 °F 20.1 °F 24.8 °F 75% 30.25 in 10.0 mi WSW 19.6 mph - N/A   Clear
5:35 AM 32.0 °F 19.8 °F 24.8 °F 75% 30.24 in 10.0 mi SW 20.7 mph - N/A   Clear
6:15 AM 32.0 °F 20.5 °F 24.8 °F 75% 30.24 in 10.0 mi WSW 18.4 mph - N/A   Clear
6:35 AM 32.0 °F 20.5 °F 24.8 °F 75% 30.23 in 10.0 mi WSW 18.4 mph - N/A   Clear
6:55 AM 32.0 °F 21.2 °F 24.8 °F 75% 30.23 in 10.0 mi WSW 16.1 mph - N/A   Clear
7:35 AM 32.0 °F 20.5 °F 24.8 °F 75% 30.22 in 10.0 mi WSW 18.4 mph - N/A   Clear
8:15 AM 32.0 °F 20.8 °F 24.8 °F 75% 30.21 in 10.0 mi WSW 17.3 mph - N/A   Clear
8:35 AM 32.0 °F 20.8 °F 26.6 °F 80% 30.21 in 10.0 mi WSW 17.3 mph - N/A   Clear
8:55 AM 33.8 °F 23.2 °F 26.6 °F 75% 30.21 in 10.0 mi WSW 17.3 mph - N/A   Clear
9:15 AM 35.6 °F 24.8 °F 26.6 °F 70% 30.21 in 10.0 mi WSW 19.6 mph - N/A   Clear
9:35 AM 37.4 °F 27.2 °F 28.4 °F 70% 30.20 in 10.0 mi WSW 19.6 mph - N/A   Clear
9:55 AM 41.0 °F 31.4 °F 28.4 °F 61% 30.21 in 10.0 mi WSW 21.9 mph 25.3 mph N/A   Clear
10:15 AM 41.0 °F 31.6 °F 28.4 °F 61% 30.20 in 10.0 mi WSW 20.7 mph - N/A   Clear
10:35 AM 42.8 °F 33.8 °F 28.4 °F 57% 30.20 in 10.0 mi WSW 21.9 mph - N/A   Clear
10:55 AM 44.6 °F 36.1 °F 28.4 °F 53% 30.20 in 10.0 mi WSW 21.9 mph - N/A   Clear
11:15 AM 44.6 °F 36.4 °F 30.2 °F 57% 30.19 in 10.0 mi WSW 20.7 mph - N/A   Clear
11:35 AM 46.4 °F 39.2 °F 30.2 °F 53% 30.17 in 10.0 mi WSW 18.4 mph - N/A   Clear
11:55 AM 48.2 °F - 30.2 °F 50% 30.15 in 10.0 mi WSW 16.1 mph - N/A   Clear
12:15 PM 50.0 °F - 30.2 °F 47% 30.14 in 10.0 mi SW 17.3 mph - N/A   Clear
12:35 PM 51.8 °F - 32.0 °F 47% 30.12 in 10.0 mi WSW 16.1 mph - N/A   Clear
12:55 PM 53.6 °F - 32.0 °F 44% 30.11 in 10.0 mi WSW 15.0 mph - N/A   Clear
1:15 PM 55.4 °F - 32.0 °F 41% 30.10 in 10.0 mi WSW 13.8 mph - N/A   Clear
1:35 PM 59.0 °F - 32.0 °F 36% 30.09 in 10.0 mi WSW 12.7 mph - N/A   Clear
1:55 PM 59.0 °F - 32.0 °F 36% 30.08 in 10.0 mi WSW 11.5 mph - N/A   Clear
2:15 PM 60.8 °F - 32.0 °F 34% 30.07 in 10.0 mi WSW 11.5 mph - N/A   Clear
2:35 PM 60.8 °F - 32.0 °F 34% 30.07 in 10.0 mi SW 9.2 mph - N/A   Clear
2:55 PM 62.6 °F - 32.0 °F 32% 30.07 in 10.0 mi SW 9.2 mph - N/A   Clear
3:15 PM 62.6 °F - 32.0 °F 32% 30.07 in 10.0 mi SW 9.2 mph - N/A   Clear
3:35 PM 62.6 °F - 32.0 °F 32% 30.07 in 10.0 mi WSW 8.1 mph - N/A   Clear
3:55 PM 62.6 °F - 32.0 °F 32% 30.07 in 10.0 mi WSW 9.2 mph - N/A   Clear
4:15 PM 60.8 °F - 32.0 °F 34% 30.08 in 10.0 mi WSW 6.9 mph - N/A   Clear
4:35 PM 59.0 °F - 32.0 °F 36% 30.08 in 10.0 mi WSW 4.6 mph - N/A   Clear
4:55 PM 57.2 °F - 33.8 °F 41% 30.07 in 10.0 mi SW 8.1 mph - N/A   Clear
5:15 PM 53.6 °F - 35.6 °F 51% 30.08 in 10.0 mi West 5.8 mph - N/A   Clear
5:35 PM 53.6 °F - 33.8 °F 47% 30.08 in 10.0 mi West 5.8 mph - N/A   Clear
5:55 PM 50.0 °F - 32.0 °F 50% 30.09 in 10.0 mi West 6.9 mph - N/A   Clear
6:15 PM 50.0 °F - 33.8 °F 54% 30.11 in 10.0 mi WNW 8.1 mph - N/A   Clear
6:35 PM 46.4 °F 41.5 °F 33.8 °F 62% 30.12 in 10.0 mi NW 10.4 mph - N/A   Clear
6:55 PM 44.6 °F 38.4 °F 32.0 °F 61% 30.13 in 10.0 mi North 12.7 mph - N/A   Clear
7:15 PM 44.6 °F 38.4 °F 30.2 °F 57% 30.14 in 10.0 mi North 12.7 mph 20.7 mph N/A   Clear
7:35 PM 44.6 °F 38.4 °F 32.0 °F 61% 30.14 in 10.0 mi NNE 12.7 mph - N/A   Clear
7:55 PM 44.6 °F 40.2 °F 32.0 °F 61% 30.15 in 10.0 mi North 8.1 mph - N/A   Clear
8:15 PM 39.2 °F 32.0 °F 32.0 °F 75% 30.16 in 10.0 mi NW 11.5 mph - N/A   Clear
8:35 PM 37.4 °F 30.8 °F 30.2 °F 75% 30.16 in 10.0 mi NW 9.2 mph - N/A   Clear
8:55 PM 35.6 °F 28.6 °F 30.2 °F 81% 30.17 in 10.0 mi NW 9.2 mph - N/A   Clear
9:15 PM 35.6 °F 29.9 °F 30.2 °F 81% 30.16 in 10.0 mi NNW 6.9 mph - N/A   Clear
9:35 PM 35.6 °F 29.2 °F 30.2 °F 81% 30.16 in 10.0 mi NW 8.1 mph - N/A   Clear
9:55 PM 33.8 °F 26.4 °F 30.2 °F 87% 30.17 in 10.0 mi NW 9.2 mph - N/A   Clear
10:15 PM 33.8 °F 26.4 °F 28.4 °F 81% 30.18 in 10.0 mi NW 9.2 mph - N/A   Clear
10:35 PM 33.8 °F 26.4 °F 30.2 °F 87% 30.19 in 10.0 mi NW 9.2 mph - N/A   Clear
10:55 PM 33.8 °F 25.8 °F 28.4 °F 81% 30.21 in 10.0 mi NW 10.4 mph - N/A   Clear
11:15 PM 35.6 °F 28.0 °F 28.4 °F 75% 30.22 in 10.0 mi NNW 10.4 mph - N/A   Clear
11:35 PM 37.4 °F 29.3 °F 28.4 °F 70% 30.23 in 10.0 mi NNW 12.7 mph - N/A   Clear
11:55 PM 35.6 °F 27.1 °F 28.4 °F 75% 30.23 in 10.0 mi NNW 12.7 mph - N/A   Clear